Overview Statistics Trail Chart Weather Telemetry Raw packets
 

This is the latest recevied weather packets stored in our database for station/object K5GHS-1. If no packets are shown the sender has not sent any weather packets the latest 10 day(s).

<< 23 24 25 26 27 28 29 >>
Time Temp. Humidity Pressure Rain* Wind** Luminosity Snow
1788547914 35.56° C 48% 1012.2 hPa 0 mm - 629 W/m² -
1788547612 35.56° C 48% 1012.2 hPa 0 mm - 658 W/m² -
1788547308 35° C 50% 1012.3 hPa 0 mm - 681 W/m² -
1788547004 35° C 49% 1012.3 hPa 0 mm - 664 W/m² -
1788546703 35.56° C 51% 1012.4 hPa 0 mm - 613 W/m² -
1788546399 35.56° C 51% 1012.5 hPa 0 mm - 505 W/m² -
1788546094 35.56° C 52% 1012.5 hPa 0 mm - 479 W/m² -
1788545790 35.56° C 51% 1012.5 hPa 0 mm - 561 W/m² -
1788545484 34.44° C 52% 1012.7 hPa 0 mm - 597 W/m² -
1788545180 34.44° C 53% 1012.8 hPa 0 mm - 651 W/m² -
1788544875 35° C 53% 1013 hPa 0 mm - 159 W/m² -
1788544574 35° C 52% 1013.1 hPa 0 mm - 651 W/m² -
1788544272 35.56° C 50% 1013.4 hPa 0 mm - 663 W/m² -
1788543967 35° C 50% 1013.2 hPa 0 mm - 665 W/m² -
1788543664 34.44° C 51% 1013.2 hPa 0 mm - 635 W/m² -
1788543364 34.44° C 52% 1013.2 hPa 0 mm - 631 W/m² -
1788543059 33.89° C 55% 1013.2 hPa 0 mm - 644 W/m² -
1788542755 34.44° C 53% 1013.6 hPa 0 mm - 664 W/m² -
1788542454 34.44° C 53% 1013.5 hPa 0 mm - 663 W/m² -
1788542149 33.89° C 54% 1013.4 hPa 0 mm - 673 W/m² -
1788541845 34.44° C 54% 1013.6 hPa 0 mm - 694 W/m² -
1788541540 33.89° C 54% 1013.5 hPa 0 mm - 711 W/m² -
1788541237 33.89° C 56% 1013.7 hPa 0 mm - 712 W/m² -
1788540935 33.33° C 57% 1013.7 hPa 0 mm - 722 W/m² -
1788540635 33.89° C 57% 1013.6 hPa 0 mm - 718 W/m² -

* Rain latest hour (hover to see other rain measurements)
** Current wind speed in m/s (hover to see current wind gust speed)